Regional Weather Roundup
Issued by NWS Little Rock, AR

Home | Current Version | Previous Version | Graphics & Text | Print | Product List | Glossary On
Versions: 1 2 3 4 5 6 7 8 9 10 11 12 13 14 15 16 17 18 19 20 21 22 23 24 25 26 27 28 29 30 31 32 33 34 35 36 37 38 39 40 41 42 43 44 45 46 47 48 49
000
ASUS44 KLZK 280405
RWRLZK

WEATHER ROUNDUP FOR ARKANSAS
NATIONAL WEATHER SERVICE LITTLE ROCK AR
1000 PM CST FRI FEB 27 2015

NOTE: "FAIR" INDICATES FEW OR NO CLOUDS BELOW 12,000 FEET WITH NO
SIGNIFICANT WEATHER AND/OR OBSTRUCTIONS TO VISIBILITY.

ARZ001-003-010-029-280500-
NORTHWEST ARKANSAS

CITY           SKY/WX    TMP DP  RH WIND       PRES   REMARKS
FAYETTEVILLE   CLOUDY    19  15  84 E7        30.49R WCI  10
FORT SMITH     FLURRIES  24  18  77 E12       30.54F WCI  13
HARRISON       FLURRIES  17  14  88 E5        30.51R WCI  10
BENTONVILLE    CLOUDY    18  12  79 E9        30.49F WCI   6
ROGERS         FLURRIES  17  13  84 E8        30.49S WCI   7
SILOAM SPGS    CLOUDY    18  10  73 E8        30.50F WCI   7
HIGHFILL       CLOUDY    19  13  77 E8        30.49R WCI   9
$$

ARZ004-005-016-280500-
NORTH CENTRAL ARKANSAS

CITY           SKY/WX    TMP DP  RH WIND       PRES   REMARKS
BATESVILLE     CLOUDY    21  12  68 E6        30.57S WCI  14
FLIPPIN        MOCLDY    19  12  73 CALM      30.55R
MTN HOME       LGT SNOW  19  15  84 E5        30.54S FOG     WCI  12
$$

ARZ040-041-280500-
WEST CENTRAL ARKANSAS

CITY           SKY/WX    TMP DP  RH WIND       PRES   REMARKS
MENA           CLOUDY    27  21  80 E6        30.48S WCI  20
MOUNT IDA      CLOUDY    25  17  72 VRB3      30.50R
$$

ARZ009-017-025-026-028-280500-
NORTHEAST ARKANSAS

CITY           SKY/WX    TMP DP  RH WIND       PRES   REMARKS
CORNING        CLOUDY    23  12  63 NE12      30.61R WCI  12
JONESBORO      CLOUDY    23  16  74 NE12      30.58F WCI  12
NEWPORT        CLOUDY    24  14  65 NE15      30.60R WCI  11
WALNUT RIDGE   CLOUDY    23  10  58 NE13      30.60R WCI  11
BLYTHEVILLE    CLOUDY    25  15  66 NE15      30.59F WCI  13
$$

ARZ022-023-033-042-044-280500-
CENTRAL ARKANSAS

CITY           SKY/WX    TMP DP  RH WIND       PRES   REMARKS
LITTLE ROCK    CLOUDY    27  14  58 NE13      30.57R WCI  16
N LITTLE ROCK  CLOUDY    25  17  72 E10       30.57R WCI  15
JACKSONVILLE   CLOUDY    25  14  61 NE12      30.56R WCI  15
SEARCY         CLOUDY    24  16  71 NE10      30.59S WCI  14
HOT SPRINGS    CLOUDY    27   7  42 E8        30.53R WCI  19
RUSSELLVILLE   CLOUDY    24  17  74 E6        30.56R WCI  17
CLINTON        CLOUDY    23  16  74 NE3       30.59R
$$

ARZ036-280500-
EAST ARKANSAS

CITY           SKY/WX    TMP DP  RH WIND       PRES   REMARKS
WEST MEMPHIS   MOCLDY    26  17  68 NE14      30.55F WCI  14
$$

ARZ050-053-066-070-073-280500-
SOUTHWEST ARKANSAS

CITY           SKY/WX    TMP DP  RH WIND       PRES   REMARKS
ARKADELPHIA    FAIR      28  14  55 NE9       30.56R WCI  19
CAMDEN         CLOUDY    28  16  59 MISG      30.54R
TEXARKANA      CLOUDY    29  17  61 NE7       30.51R WCI  22
EL DORADO      CLOUDY    29  18  63 NE9       30.51R WCI  20
DE QUEEN       LGT SNOW  26  21  81 E7        30.51F WCI  18
$$

ARZ056-057-069-280500-
SOUTHEAST ARKANSAS

CITY           SKY/WX    TMP DP  RH WIND       PRES   REMARKS
PINE BLUFF     CLOUDY    26  17  68 NE13      30.55S WCI  15
STUTTGART      CLOUDY    27  18  69 NE14      30.56S WCI  15
MONTICELLO     CLOUDY    29  20  69 NE9       30.52S WCI  20

$$





USA.gov is the U.S. government's official web portal to all federal, state and local government web resources and services.